www.pogodaiklimat.ru

Погода и климат >> Архив погоды >> Норвегия >> Банак


ПОГОДА в Банаке

  • Прогноз погоды в Банаке
  • Монитор погоды в Банаке

АРХИВ ПОГОДЫ в Банаке

Время (UTC), дата Ветер
(напр.,м/с)
 
Видим.   Явления Облачность Т
(С)
Тd
(С)
f
(%)
Тe
(С)
Тes
(С)
Комфортность P
(гПа)
Po
(гПа)
Тmin
(С)
Tmax
(С)
R
(мм)
R24
(мм)
S
(см)
10 17.01 ЮВ 1
{2}
н/о н/о -8.7 -9.8 92 -11 -11 991.2 990.2
11 17.01 штиль 0
{2}
н/о н/о -8.9 -10.0 92 -10 -10 991.0 990.1
12 17.01 Ю 2
{3}
н/о н/о -8.8 -9.9 92 -13 -13 990.9 989.9
13 17.01 Ю 2
{3}
н/о н/о -9.2 -10.1 93 -14 -14 990.7 989.7
14 17.01 Ю 2
{2}
н/о н/о -9.8 -11.1 90 -14 -14 990.6 989.7
15 17.01 штиль 0
{2}
н/о н/о -10.2 -11.4 91 -11 -11 990.7 989.7
16 17.01 ЮВ 1
{2}
н/о н/о -11.6 -12.9 90 -14 -14 990.9 989.9
17 17.01 Ю 1
{2}
н/о н/о -11.8 -13.3 89 -14 -14 990.9 990.0
18 17.01 В 2
{3}
н/о н/о -11.9 -13.3 89 -16 -16 991.0 990.0 -12.2 -8.5
19 17.01 ЮВ 1
{2}
н/о н/о -11.0 -12.3 90 -13 -13 991.1 990.2
20 17.01 В 1
{2}
н/о н/о -10.5 -11.8 90 -13 -13 991.2 990.2
21 17.01 штиль 0
{2}
н/о н/о -9.6 -10.8 91 -10 -10 991.5 990.5
22 17.01 штиль 0
{1}
н/о н/о -10.1 -11.4 90 -10 -10 991.6 990.7
23 17.01 Ю 1
{2}
н/о н/о -10.5 -11.7 91 -13 -13 991.9 990.9
00 18.01 штиль 0
{2}
н/о н/о -9.0 -10.1 92 -10 -10 992.2 991.2
01 18.01 Ю 4
{5}
н/о н/о -9.6 -11.3 87 -17 -17 992.3 991.3
02 18.01 ЮВ 3
{6}
н/о н/о -9.8 -11.5 87 -16 -16 992.5 991.5
03 18.01 ЮВ 1
{4}
н/о н/о -9.7 -11.1 89 -12 -12 992.8 991.8
04 18.01 Ю 4
{5}
н/о н/о -10.8 -12.1 90 -18 -18 993.6 992.6
05 18.01 Ю 3
{5}
н/о н/о -9.9 -11.8 86 -16 -16 993.6 992.7
06 18.01 Ю 5
{6}
н/о н/о -9.8 -11.7 86 -18 -18 993.7 992.7 -12.1 -7.9
07 18.01 Ю 6
{7}
н/о н/о -10.5 -12.6 85 -19 -19 994.3 993.3
08 18.01 Ю 6
{7}
н/о н/о -10.7 -12.9 84 -19 -19 994.8 993.8
09 18.01 Ю 5
{7}
н/о н/о -11.3 -13.6 83 -19 -19 994.9 993.9
10 18.01 Ю 7
{9}
н/о н/о -11.7 -14.2 82 -21 -21 995.1 994.1
11 18.01 Ю 8
{9}
н/о н/о -11.8 -14.4 81 -22 -22 995.4 994.5
12 18.01 Ю 6
{9}
н/о н/о -12.4 -14.8 82 -21 -21 995.6 994.6
13 18.01 ЮВ 3
{7}
н/о н/о -12.0 -14.6 81 -18 -18 995.5 994.5
14 18.01 ЮВ 7
{11}
н/о н/о -11.8 -14.4 81 -21 -21 995.6 994.6
15 18.01 Ю 5
{10}
н/о н/о -12.1 -14.8 80 -20 -20 995.6 994.6
16 18.01 Ю 5
{10}
н/о н/о -12.4 -15.1 80 -20 -20 995.7 994.7
17 18.01 Ю 5
{8}
н/о н/о -12.4 -15.1 80 -20 -20 995.4 994.4
18 18.01 Ю 7
{11}
н/о н/о -12.1 -15.1 78 -22 -22 995.5 994.5 -12.8 -9.8
19 18.01 Ю 6
{9}
н/о н/о -11.9 -14.9 78 -21 -21 995.2 994.2
20 18.01 Ю 7
{9}
н/о н/о -11.9 -14.3 82 -21 -21 995.8 994.8
21 18.01 Ю 9
{10}
н/о н/о -11.8 -14.1 83 -22 -22 996.0 995.0
22 18.01 Ю 8
{11}
н/о н/о -11.8 -14.3 82 -22 -22 996.2 995.3
23 18.01 Ю 7
{10}
н/о н/о -11.8 -14.1 83 -21 -21 996.9 995.9
00 19.01 Ю 7
{11}
н/о н/о -11.8 -14.4 81 -21 -21 997.1 996.1
01 19.01 Ю 7
{9}
н/о н/о -12.0 -14.6 81 -21 -21 997.2 996.2
02 19.01 Ю 6
{10}
н/о н/о -12.5 -15.2 80 -21 -21 997.3 996.3
03 19.01 Ю 7
{9}
н/о н/о -12.8 -15.6 79 -22 -22 997.3 996.3
04 19.01 Ю 6
{9}
н/о н/о -13.3 -16.1 79 -22 -22 997.6 996.6
05 19.01 Ю 6
{8}
н/о н/о -13.3 -16.3 78 -22 -22 997.7 996.7
06 19.01 Ю 4
{10}
н/о н/о -13.4 -16.4 78 -21 -21 998.1 997.1 -13.5 -11.7
07 19.01 Ю 5
{7}
н/о н/о -13.4 -16.2 79 -22 -22 998.3 997.3
08 19.01 Ю 5
{6}
н/о н/о -13.5 -16.3 79 -22 -22 998.5 997.5
09 19.01 ЮВ 5
{7}
н/о н/о -13.8 -16.3 81 -22 -22 998.8 997.8
10 19.01 ЮВ 5
{8}
н/о н/о -14.0 -16.5 81 -23 -23 999.3 998.3
11 19.01 ЮВ 5
{7}
н/о н/о -14.2 -16.6 82 -23 -23 999.8 998.8
12 19.01 ЮВ 5
{8}
н/о н/о -14.0 -16.5 81 -23 -23 1000.1 999.1
13 19.01 ЮВ 5
{8}
н/о н/о -13.7 -16.3 81 -22 -22 1000.4 999.4
14 19.01 ЮВ 5
{7}
н/о н/о -12.8 -15.8 78 -21 -21 1000.9 999.9
15 19.01 Ю 5
{7}
н/о н/о -12.4 -15.4 78 -20 -20 1001.5 1000.5
16 19.01 Ю 2
{6}
н/о н/о -12.2 -14.4 84 -17 -17 1002.4 1001.4
17 19.01 Ю 4
{5}
н/о н/о -13.0 -15.2 84 -20 -20 1003.0 1002.0
18 19.01 Ю 2
{8}
н/о н/о -12.9 -15.3 82 -18 -18 1003.9 1002.9 -14.3 -12.2
19 19.01 Ю 2
{3}
н/о н/о -13.8 -16.1 83 -19 -19 1004.4 1003.4
20 19.01 Ю 2
{3}
н/о н/о -15.8 -17.8 85 -21 -21 1004.8 1003.8
21 19.01 ЮЗ 2
{3}
н/о н/о -17.8 -19.6 86 -23 -23 1005.3 1004.3
22 19.01 Ю 2
{2}
н/о н/о -20.1 -22.1 84 -26 -26 1005.8 1004.8
23 19.01 Ю 1
{3}
н/о н/о -19.8 -22.1 82 -23 -23 1006.1 1005.1
00 20.01 Ю 1
{3}
н/о н/о -22.0 -24.0 84 -25 -25 1006.4 1005.4
01 20.01 Ю 2
{3}
н/о н/о -20.8 -23.1 82 -27 -27 1006.8 1005.8
02 20.01 Ю 1
{2}
н/о н/о -22.9 -25.3 81 -26 -26 1007.0 1006.0
03 20.01 Ю 1
{3}
н/о н/о -20.9 -22.7 85 -24 -24 1007.2 1006.2
04 20.01 ЮЗ 1 н/о н/о -20.1 -22.1 84 -23 -23 1007.3 1006.2
05 20.01 В 1
{3}
н/о н/о -19.2 -21.3 83 -22 -22 1007.2 1006.1
06 20.01 ЮВ 2
{3}
н/о н/о -15.9 -18.0 84 -21 -21 1006.9 1005.9 -24.4 -12.9
07 20.01 Ю 1
{4}
н/о н/о -14.5 -16.9 82 -17 -17 1006.9 1005.9
08 20.01 Ю 2
{5}
н/о н/о -18.4 -20.9 81 -24 -24 1007.3 1006.2
09 20.01 СВ 1
{3}
н/о н/о -16.2 -17.9 87 -19 -19 1007.5 1006.5
10 20.01 С 3
{4}
н/о н/о -13.5 -17.2 74 -20 -20 1007.4 1006.4
11 20.01 ЮЗ 3
{4}
н/о н/о -12.8 -15.9 78 -19 -19 1007.7 1006.7
12 20.01 ЮВ 3
{5}
н/о н/о -11.2 -15.8 69 -17 -17 1007.7 1006.7
13 20.01 Ю 4
{8}
н/о н/о -11.8 -16.7 67 -19 -19 1008.0 1007.0
14 20.01 ЮЗ 4
{6}
н/о н/о -12.2 -16.7 69 -19 -19 1008.6 1007.6
15 20.01 Ю 2
{6}
н/о н/о -11.4 -15.6 71 -16 -16 1008.4 1007.4
16 20.01 Ю 3
{4}
н/о н/о -12.5 -15.1 81 -19 -19 1008.5 1007.5
17 20.01 Ю 2
{4}
н/о н/о -13.3 -15.7 82 -18 -18 1009.0 1008.0
18 20.01 Ю 2
{8}
н/о н/о -13.6 -15.6 85 -18 -18 1008.9 1007.9 -18.5 -11.0
19 20.01 Ю 2
{3}
н/о н/о -14.1 -16.1 85 -19 -19 1009.1 1008.1
20 20.01 ЮЗ 2
{3}
н/о н/о -14.2 -16.3 84 -19 -19 1009.3 1008.3
21 20.01 штиль 0
{3}
н/о н/о -14.7 -16.4 87 -15 -15 1009.4 1008.4
22 20.01 Ю 2
{3}
н/о н/о -16.3 -18.2 85 -22 -22 1009.5 1008.4
23 20.01 Ю 2
{2}
н/о н/о -17.2 -19.0 86 -23 -23 1009.5 1008.5
00 21.01 штиль 0
{3}
н/о н/о -21.4 -23.5 83 -21 -21 1009.5 1008.5
01 21.01 Ю 1
{2}
н/о н/о -21.8 -24.1 82 -25 -25 1009.5 1008.4
02 21.01 Ю 2
{3}
н/о н/о -20.2 -22.4 83 -26 -26 1009.7 1008.6
03 21.01 Ю 2
{3}
н/о н/о -17.3 -19.4 84 -23 -23 1009.2 1008.2
04 21.01 ЮВ 1 н/о н/о -17.1 -19.2 84 -20 -20 1008.8 1007.8
05 21.01 ЮВ 1
{3}
н/о н/о -15.3 -17.0 87 -18 -18 1008.6 1007.6
06 21.01 В 2
{3}
н/о н/о -15.4 -17.4 85 -20 -20 1008.5 1007.5 -22.5 -13.6
07 21.01 ЮВ 2
{4}
н/о н/о -15.4 -17.4 85 -20 -20 1008.5 1007.5
08 21.01 СВ 2
{7}
н/о н/о -14.1 -15.6 88 -19 -19 1008.5 1007.5
09 21.01 СЗ 6
{10}
н/о н/о -8.1 -9.3 91 -16 -16 1008.7 1007.7
10 21.01 З 10
{12}
н/о н/о -5.9 -10.5 70 -16 -16 1008.5 1007.5
11 21.01 З 8
{11}
н/о н/о -6.2 -10.8 70 -15 -15 1008.8 1007.9
12 21.01 З 10
{12}
н/о н/о -5.8 -10.9 67 -15 -15 1008.5 1007.5
13 21.01 З 9
{12}
н/о н/о -6.0 -11.4 66 -15 -15 1008.3 1007.3
14 21.01 З 10
{12}
н/о н/о -5.0 -9.1 73 -14 -14 1008.4 1007.4
15 21.01 З 9
{13}
н/о н/о -4.4 -9.9 65 -13 -13 1008.1 1007.1
16 21.01 З 11
{14}
н/о н/о -4.5 -9.1 70 -14 -14 1007.6 1006.6
17 21.01 З 11
{15}
н/о н/о -3.7 -7.5 75 -13 -13 1007.3 1006.3
18 21.01 З 11
{15}
н/о н/о -3.0 -6.8 75 -12 -12 1007.3 1006.4 -16.4 -3.0
19 21.01 СЗ 6
{12}
н/о н/о -3.3 -7.0 76 -11 -11 1007.3 1006.4
20 21.01 С 6
{7}
н/о н/о -4.3 -8.6 72 -12 -12 1007.0 1006.0
21 21.01 СЗ 8
{14}
н/о н/о -2.8 -7.8 68 -11 -11 1006.6 1005.6
22 21.01 З 6
{15}
н/о н/о -3.0 -7.7 70 -10 -10 1006.3 1005.3
23 21.01 ЮЗ 2
{5}
н/о н/о -2.6 -7.3 70 -6 -6 1005.9 1005.0
00 22.01 ЮВ 2
{15}
н/о н/о -3.8 -6.3 83 -8 -8 1005.5 1004.5
01 22.01 ЮВ 3
{4}
н/о н/о -4.6 -6.2 89 -10 -10 1004.8 1003.9
02 22.01 В 1
{3}
н/о н/о -5.3 -6.5 91 -8 -8 1004.4 1003.4
03 22.01 штиль 0
{1}
н/о н/о -5.6 -6.6 93 -7 -7 1004.2 1003.2
04 22.01 штиль 0 н/о н/о -5.6 -6.4 94 -7 -7 1003.9 1003.0
05 22.01 Ю 1
{2}
н/о н/о -6.8 -7.8 93 -9 -9 1004.1 1003.1
06 22.01 С 4
{4}
н/о н/о -7.3 -8.4 92 -14 -14 1004.4 1003.4 -7.3 -2.5
07 22.01 С 3
{6}
н/о н/о -9.2 -10.5 90 -15 -15 1004.9 1003.9
08 22.01 С 4
{5}
н/о н/о -5.7 -6.5 94 -12 -12 1005.4 1004.4
09 22.01 СЗ 4
{6}
н/о н/о -5.5 -6.6 92 -12 -12 1005.8 1004.9
10 22.01 С 5
{6}
н/о н/о -5.4 -6.5 92 -13 -13 1006.3 1005.3
11 22.01 СЗ 3
{7}
н/о н/о -5.6 -6.8 91 -11 -11 1006.6 1005.6
12 22.01 С 2
{7}
н/о н/о -8.9 -10.6 87 -13 -13 1006.6 1005.6
13 22.01 С 4
{6}
н/о н/о -6.9 -7.9 93 -14 -14 1006.9 1005.9
14 22.01 С 1
{5}
н/о н/о -8.3 -9.5 91 -11 -11 1007.2 1006.2
15 22.01 СВ 1
{2}
н/о н/о -8.7 -9.8 92 -11 -11 1007.2 1006.3
16 22.01 Ю 2
{3}
н/о н/о -11.0 -11.9 93 -16 -16 1007.4 1006.4
17 22.01 Ю 2
{3}
н/о н/о -15.3 -17.0 87 -20 -20 1007.7 1006.7
18 22.01 ЮЗ 1
{6}
н/о н/о -16.8 -18.5 87 -20 -20 1007.8 1006.8 -17.4 -5.1
19 22.01 В 2
{3}
н/о н/о -15.2 -16.7 88 -20 -20 1007.8 1006.8
20 22.01 В 2
{2}
н/о н/о -16.7 -18.3 87 -22 -22 1008.1 1007.0
21 22.01 В 1
{2}
н/о н/о -16.7 -18.4 87 -19 -19 1008.1 1007.1
22 22.01 В 1
{2}
н/о н/о -18.4 -20.5 83 -21 -21 1008.4 1007.4
23 22.01 В 2
{4}
н/о н/о -17.8 -19.9 84 -23 -23 1008.9 1007.8
00 23.01 В 1
{4}
н/о н/о -17.6 -19.6 84 -20 -20 1009.2 1008.1
01 23.01 Ю 1
{2}
н/о н/о -17.8 -19.9 84 -21 -21 1009.5 1008.5
02 23.01 ЮВ 1
{2}
н/о н/о -18.2 -20.1 85 -21 -21 1009.9 1008.9
03 23.01 ЮЗ 2
{3}
н/о н/о -20.1 -22.1 84 -26 -26 1010.7 1009.7
04 23.01 Ю 1 н/о н/о -20.1 -22.4 82 -23 -23 1010.9 1009.8
05 23.01 В 2
{3}
н/о н/о -16.5 -18.3 86 -22 -22 1011.6 1010.6
06 23.01 ЮЗ 1
{3}
н/о н/о -15.5 -17.4 85 -18 -18 1012.0 1011.0 -20.5 -15.1
07 23.01 Ю 1
{2}
н/о н/о -16.8 -18.6 86 -20 -20 1012.8 1011.8
08 23.01 ЮЗ 2
{3}
н/о н/о -17.1 -19.1 84 -22 -22 1013.5 1012.5
09 23.01 ЮВ 2
{3}
н/о н/о -19.6 -21.7 83 -25 -25 1014.0 1012.9
10 23.01 ЮВ 2
{4}
н/о н/о -19.9 -21.9 84 -26 -26 1014.7 1013.7
11 23.01 ЮВ 1
{2}
н/о н/о -19.9 -22.1 83 -23 -23 1015.2 1014.2
12 23.01 Ю 1
{4}
н/о н/о -21.1 -23.4 82 -24 -24 1015.6 1014.6
13 23.01 В 2
{2}
н/о н/о -21.6 -23.7 83 -28 -28 1015.9 1014.9
14 23.01 В 1
{3}
н/о н/о -19.8 -21.8 84 -23 -23 1016.6 1015.6
15 23.01 В 1
{2}
н/о н/о -16.2 -18.1 85 -19 -19 1017.0 1016.0
16 23.01 В 1
{2}
н/о н/о -15.9 -17.8 85 -19 -19 1017.6 1016.6
17 23.01 ЮЗ 1
{2}
н/о н/о -16.6 -18.4 86 -19 -19 1018.0 1017.0
18 23.01 ЮВ 1
{3}
н/о н/о -17.3 -19.4 84 -20 -20 1018.6 1017.6 -22.3 -15.2
19 23.01 Ю 1
{2}
н/о н/о -15.7 -17.4 87 -18 -18 1019.2 1018.1
20 23.01 ЮЗ 1
{2}
н/о н/о -14.3 -16.1 86 -17 -17 1019.7 1018.7
21 23.01 ЮЗ 2
{3}
н/о н/о -13.5 -15.1 88 -18 -18 1020.1 1019.1
22 23.01 Ю 1
{2}
н/о н/о -12.5 -14.0 89 -15 -15 1020.4 1019.3
23 23.01 штиль 0
{2}
н/о н/о -12.0 -13.5 89 -12 -12 1020.5 1019.5
00 24.01 В 1
{3}
н/о н/о -11.2 -12.6 89 -13 -13 1020.4 1019.4
01 24.01 штиль 0
{2}
н/о н/о -11.0 -12.4 89 -11 -11 1020.4 1019.4
02 24.01 Ю 2
{3}
н/о н/о -10.5 -11.7 91 -15 -15 1020.4 1019.4
03 24.01 Ю 1
{2}
н/о н/о -11.6 -13.0 89 -14 -14 1020.4 1019.3
04 24.01 ЮЗ 1
{2}
н/о н/о -12.8 -14.3 88 -15 -15 1020.2 1019.2
05 24.01 Ю 1
{2}
н/о н/о -13.0 -14.5 88 -15 -15 1020.1 1019.1
06 24.01 Ю 1
{3}
н/о н/о -12.6 -14.1 89 -15 -15 1020.2 1019.2 -18.2 -10.2
07 24.01 Ю 1
{3}
н/о н/о -12.6 -14.1 89 -15 -15 1020.3 1019.3
08 24.01 В 1
{3}
н/о н/о -14.3 -15.9 88 -17 -17 1020.5 1019.4

 

Местоположение метеостанции Банак (Норвегия): широта 70.06 долгота 24.99 высота над уровнем моря 5 м.

В архиве по умолчанию представлена погода в Банаке за последнюю неделю. Архивные данные за месяц целиком и за предыдущие месяцы, начиная с января 2011 года, Вы можете получить, выбрав интересующий диапазон дат из раскрывающегося списка и нажав кнопку "Ввод!".


*Определитесь, кто Вы:
робот инопланетянин человек

Внимание! Время в таблицах - всемирное. Для получения местного времени необходимо прибавить поправку, которая равна 1 ч.

Смотрите также архив погоды в соседних городах и на ближайших метеорологических станциях:

Погода в Карасйоке (Норвегия) (59 км)
Погода в Альта аэропорту (Норвегия) (63 км)
Погода в Суоловуопми-Лулит (Норвегия) (77 км)
Погода в Суовддатмохкки (Норвегия) (80 км)
Погода в Утсйоки Кево (Финляндия) (84 км)
Погода в Утсёки Кево Кеволярви (Финляндия) (84 км)
Погода в Искорасе (Норвегия) (86 км)
Погода в Рогнсундете (Норвегия) (90 км)
Погода в Хаммерфест аэропорту (Норвегия) (92 км)
Погода в Утсйоки Нуоргам (Финляндия) (110 км)

Пояснения к столбцам:

Ветер - указаны скорость ветра в м/с - средняя за 10 мин, порывы в срок и между сроками (в фигурных скобках) и направление, откуда дует ветер: С - северный, СВ - северо-восточный, В - восточный, ЮВ - юго-восточный, Ю - южный, ЮЗ - юго-западный, З - западный, СЗ - северо-западный.
Видимость - горизонтальная дальность видимости в метрах или километрах. При видимости от 1 до 10 км при отсутствии осадков обычно наблюдается дымка, при ухудшении видимости до 1 км и менее - туман. В сухую погоду видимость может ухудшаться дымом, пылью или мглою.
Явления - указаны атмосферные явления, наблюдавшиеся в срок или в последний час перед сроком; фигурными скобками обозначены явления, наблюдавшиеся между сроками (за 1-3 часа до срока); квадратными скобками обозначены град или гололедные отложения с указанием их диаметра в мм.
Облачность - указаны через наклонную черту общая и нижняя облачность в баллах и высота нижней границы облаков в метрах; квадратными скобками обозначены формы облаков: Ci - перистые, Cs - перисто-слоистые, Cc - перисто-кучевые, Ac - высококучевые, As - высокослоистые, Sc - слоисто-кучевые, Ns - слоисто-дождевые, Cu - кучевые, Cb - кучево-дождевые. Подробнее классификацию облаков см. в Атласе облаков (PDF).
T - Температура воздуха - температура, измеренная на высоте 2 м над землей.
Td - Температура точки росы - температура, при понижении до которой содержащийся в воздухе водяной пар достигнет насыщения.
f - Относительная влажность воздуха - влажноcть воздуха, измеренная на высоте 2 м над землей.
Te - Эффективная температура - температура, которую ощущает одетый по сезону человек в тени. Характеристика душности погоды. При расчете учитывается влияние влажности воздуха и скорости ветра на теплоощущения человека.
Tes - Эффективная температура на солнце - температура, которую ощущает человек, с поправкой на солнечный нагрев. Характеристика знойности погоды. Зависит от высоты солнца над горизонтом, облачности и скорости ветра. Ночью, в пасмурную погоду, а также при ветре 12 м/с и более поправка равна нулю.
P - Атмосферное давление - приведенное к уровню моря атмосферное давление.
Po - Атмосферное давление - измеренное на уровне метеостанции атмосферное давление.
Tmin - Минимальная температура - минимум температуры воздуха на высоте 2 м над землей.
Tmax - Максимальная температура - максимум температуры воздуха на высоте 2 м над землей.
R - Количество осадков - Количество выпавших осадков за период времени, мм. При наведении курсора мыши на число - период времени, за который выпало указанное количество осадков.
R24 - Количество осадков - Количество выпавших осадков за 24 часа, мм.
S - Снежный покров - Высота снежного покрова, см. При наведении курсора мыши на число - состояние снежного покрова и степень покрытия местности в баллах.